Starlink 5334

operational
NORAD ID: 56509 Int'l Des: 2023-065 Owner: SPXS Country: US Constellation: starlink
LEOCIRCULAR

About Starlink 5334

Description loading...

Live Position

Loading 3D Globe...

Upcoming Passes

Altitude History

Altitude vs Time

uPlot chart will show altitude changes over time

Two-Line Element Set

1 56509U 23065G 26037.31595199 .00001150 00000-0 10020-3 0 9994
2 56509 43.0045 20.9611 0001277 273.5989 86.4708 15.02529299151905
Epoch: Feb 6, 2026 • Age: 19 hours

Current Status

Altitude 562.0 km
Velocity 7.59 km/s
Sub-Earth Point 38.70°N, 107.34°W
Launch Date May 14, 2023
Age 2.7 years
Type internet

Technical Details

Classification Payload
Mass 305.00 kg
Dry Mass 290.00 kg
Total Mass 305.00 kg
Length 0.20 m
Diameter 2.80 m
Span 9.00 m
Shape Box + pan
Manufacturer SPXS
Bus Type Starlink
Phase Status In Orbit
Owner/State SPXS/US

Large Constellations

Loading constellations...